KD5NDU-15 Weather Reports


time (UTC)temp
C
wind
direction
speed
KPH
gust
KPH
rain 1hr
cm
rain 24hr
cm
rain mn
cm
humidity
%
barometer
mb
20260509033232 14 197 0.0 0.0 0.00 0.00 0.00 92 1009.7
20260509032731 14 198 0.0 0.0 0.00 0.00 0.00 91 1009.6
20260509032231 15 198 0.0 3.2 0.00 0.00 0.00 91 1009.6
20260509031409 15 153 1.6 6.4 0.00 0.00 0.00 91 1009.4
20260509030729 15 198 1.6 4.8 0.00 0.00 0.00 91 1009.3
20260509030229 15 183 1.6 3.2 0.00 0.00 0.00 90 1009.3
20260509025729 15 175 1.6 6.4 0.00 0.00 0.00 90 1009.3
20260509025320 15 174 1.6 4.8 0.00 0.00 0.00 90 1009.4
20260509025231 15 174 1.6 4.8 0.00 0.00 0.00 90 1009.4
20260509024729 15 195 1.6 6.4 0.00 0.00 0.00 91 1009.3
20260509024229 15 172 1.6 4.8 0.00 0.00 0.00 91 1009.3
20260509023729 15 174 1.6 4.8 0.00 0.00 0.00 90 1009.3
20260509023232 15 184 0.0 6.4 0.00 0.00 0.00 90 1009.3
20260509020229 15 174 0.0 3.2 0.00 0.00 0.00 87 1009.2
20260509013231 16 153 1.6 6.4 0.00 0.00 0.00 86 1009.0
20260509012232 16 186 3.2 8.0 0.00 0.00 0.00 86 1009.0
20260509011743 16 175 1.6 4.8 0.00 0.00 0.00 86 1009.0
20260509011251 16 211 1.6 4.8 0.00 0.00 0.00 85 1009.1
20260509005731 17 192 0.0 1.6 0.00 0.00 0.00 83 1009.3
20260509005231 17 192 0.0 1.6 0.00 0.00 0.00 82 1009.3
20260509004231 17 221 1.6 3.2 0.00 0.00 0.00 81 1009.4
20260509003231 18 174 1.6 4.8 0.00 0.00 0.00 80 1009.2
20260509002729 18 190 3.2 4.8 0.00 0.00 0.00 79 1009.2
20260509002229 18 153 3.2 8.0 0.00 0.00 0.00 79 1008.8
20260509001729 18 172 3.2 6.4 0.00 0.00 0.00 78 1008.9
20260509001229 18 169 3.2 8.0 0.00 0.00 0.00 77 1009.0
20260509000743 18 163 3.2 6.4 0.00 0.00 0.00 77 1009.2
20260509000229 19 155 1.6 8.0 0.00 0.00 0.00 77 1009.2
20260508235731 19 238 1.6 3.2 0.00 0.00 0.00 76 1009.3
20260508235229 19 204 1.6 6.4 0.00 0.00 0.00 75 1009.4
20260508234729 19 137 1.6 6.4 0.00 0.00 0.00 77 1009.5
20260508234243 19 205 1.6 4.8 0.00 0.00 0.00 75 1009.6
20260508233743 19 217 1.6 3.2 0.00 0.00 0.00 75 1009.6
20260508233326 19 160 3.2 8.0 0.00 0.00 0.00 74 1009.7
20260508232733 19 159 3.2 8.0 0.00 0.00 0.00 74 1009.6
20260508232229 20 179 3.2 11.3 0.00 0.00 0.00 72 1009.8
20260508231731 20 200 3.2 9.7 0.00 0.00 0.00 72 1009.7
20260508231229 20 248 3.2 8.0 0.00 0.00 0.00 71 1009.7
20260508230729 20 183 3.2 6.4 0.00 0.00 0.00 71 1009.7
20260508230301 20 226 4.8 9.7 0.00 0.00 0.00 71 1009.7
20260508225731 20 133 4.8 14.5 0.00 0.00 0.00 69 1009.6
20260508225231 21 118 4.8 8.0 0.00 0.00 0.00 70 1009.8
20260508224733 21 124 3.2 12.9 0.00 0.00 0.00 71 1009.7
20260508224229 20 203 3.2 8.0 0.00 0.00 0.00 72 1009.8
20260508223731 20 197 4.8 9.7 0.00 0.00 0.00 74 1009.7
20260508223231 20 152 4.8 11.3 0.00 0.00 0.00 72 1009.7
20260508222729 20 159 4.8 12.9 0.00 0.00 0.00 72 1009.8
20260508222229 20 168 3.2 9.7 0.00 0.00 0.00 74 1009.8
20260508221729 20 253 3.2 3.2 0.00 0.00 0.00 72 1009.6
20260508221237 20 221 4.8 11.3 0.00 0.00 0.00 72 1009.6
20260508220729 20 187 4.8 11.3 0.00 0.00 0.00 72 1009.6
20260508220229 20 147 4.8 8.0 0.00 0.00 0.00 72 1009.7
20260508215731 20 184 4.8 9.7 0.00 0.00 0.00 71 1009.6
20260508215237 20 248 4.8 12.9 0.00 0.00 0.00 72 1009.8
20260508214729 20 155 6.4 14.5 0.00 0.00 0.00 71 1009.9
20260508214243 20 157 4.8 14.5 0.00 0.00 0.00 70 1009.9
20260508213729 20 175 3.2 8.0 0.00 0.00 0.00 71 1009.9
20260508213229 20 261 3.2 6.4 0.00 0.00 0.00 71 1010.0
20260508212733 20 226 4.8 17.7 0.00 0.00 0.00 69 1010.2
20260508212231 20 191 4.8 12.9 0.00 0.00 0.00 70 1010.4
20260508211731 21 240 4.8 12.9 0.00 0.00 0.00 69 1010.5
20260508211229 21 191 4.8 14.5 0.00 0.00 0.00 69 1010.5
20260508210729 21 338 4.8 11.3 0.00 0.00 0.00 69 1010.5
20260508210229 21 180 6.4 12.9 0.00 0.00 0.00 68 1010.4
20260508205729 21 186 6.4 14.5 0.00 0.00 0.00 67 1010.5
20260508205229 22 143 6.4 17.7 0.00 0.00 0.00 69 1010.4
20260508204732 22 187 4.8 14.5 0.00 0.00 0.00 65 1010.4
20260508204237 22 179 4.8 12.9 0.00 0.00 0.00 65 1010.5
20260508203729 22 247 3.2 9.7 0.00 0.00 0.00 66 1010.6
20260508203229 22 260 3.2 9.7 0.00 0.00 0.00 67 1010.6
20260508202729 22 136 4.8 8.0 0.00 0.00 0.00 68 1010.8
20260508202229 21 137 4.8 17.7 0.00 0.00 0.00 68 1010.8
20260508201729 21 221 6.4 12.9 0.00 0.00 0.00 66 1010.9
20260508201229 21 189 4.8 12.9 0.00 0.00 0.00 66 1010.8
20260508200729 21 164 4.8 12.9 0.00 0.00 0.00 64 1010.9
20260508200320 21 233 6.4 9.7 0.00 0.00 0.00 65 1011.0
20260508195729 21 175 8.0 16.1 0.00 0.00 0.00 64 1011.1